SV2JU-2 Weather Reports


time (UTC)temp
C
wind
direction
speed
KPH
gust
KPH
rain 1hr
cm
rain 24hr
cm
rain mn
cm
humidity
%
barometer
mb
20260906072935 27 316 3.2 9.7 0.00 0.00 0.00 30 1018.0
20260906071705 27 347 3.2 8.0 0.00 0.00 0.00 31 1018.0
20260906070435 27 327 3.2 8.0 0.00 0.00 0.00 32 1018.0
20260906063935 27 351 1.6 6.4 0.00 0.00 0.00 36 1018.0
20260906062705 26 298 1.6 8.0 0.00 0.00 0.00 37 1018.0
20260906061434 25 15 1.6 6.4 0.00 0.00 0.00 37 1017.0
20260906054934 23 349 0.0 6.4 0.00 0.00 0.00 41 1017.0
20260906053705 22 15 3.2 6.4 0.00 0.00 0.00 45 1017.0
20260906052434 22 12 1.6 6.4 0.00 0.00 0.00 48 1017.0
20260906051205 22 15 0.0 3.2 0.00 0.00 0.00 45 1017.0
20260906045935 22 248 0.0 8.0 0.00 0.00 0.00 42 1017.0
20260906044705 21 359 0.0 3.2 0.00 0.00 0.00 42 1017.0
20260906043434 21 0 0.0 0.0 0.00 0.00 0.00 42 1017.0
20260906042205 21 0 0.0 0.0 0.00 0.00 0.00 43 1017.0
20260906040934 21 0 0.0 0.0 0.00 0.00 0.00 44 1017.0
20260906035705 21 0 0.0 0.0 0.00 0.00 0.00 44 1017.0
20260906034435 21 0 0.0 0.0 0.00 0.00 0.00 43 1016.0
20260906033205 21 0 0.0 0.0 0.00 0.00 0.00 44 1016.0
20260906031934 21 0 0.0 0.0 0.00 0.00 0.00 42 1016.0
20260906025434 21 0 0.0 0.0 0.00 0.00 0.00 41 1016.0
20260906024205 21 0 0.0 0.0 0.00 0.00 0.00 41 1016.0
20260906020434 22 0 0.0 0.0 0.00 0.00 0.00 40 1016.0
20260906013933 22 0 0.0 0.0 0.00 0.00 0.00 42 1016.0
20260906012704 22 0 0.0 0.0 0.00 0.00 0.00 42 1016.0
20260906011433 22 0 0.0 0.0 0.00 0.00 0.00 42 1016.0
20260906004935 22 0 0.0 0.0 0.00 0.00 0.00 42 1016.0
20260906002433 22 0 0.0 0.0 0.00 0.00 0.00 42 1016.0
20260906001204 22 0 0.0 0.0 0.00 0.00 0.00 42 1016.0
20260905235933 22 0 0.0 0.0 0.00 0.00 0.00 43 1016.0
20260905234704 22 0 0.0 0.0 0.00 0.00 0.00 42 1016.0
20260905233433 22 0 0.0 0.0 0.00 0.00 0.00 41 1016.0
20260905232204 22 0 0.0 0.0 0.00 0.00 0.00 40 1016.0
20260905230933 22 0 0.0 0.0 0.00 0.00 0.00 41 1016.0
20260905225704 23 0 0.0 0.0 0.00 0.00 0.00 40 1016.0
20260905224433 23 0 0.0 0.0 0.00 0.00 0.00 40 1016.0
20260905223204 23 0 0.0 0.0 0.00 0.00 0.00 39 1016.0
20260905221933 23 0 0.0 0.0 0.00 0.00 0.00 39 1016.0
20260905215433 23 0 0.0 0.0 0.00 0.00 0.00 41 1017.0
20260905214205 23 0 0.0 0.0 0.00 0.00 0.00 42 1017.0
20260905212933 24 0 0.0 0.0 0.00 0.00 0.00 36 1017.0
20260905210433 24 0 0.0 0.0 0.00 0.00 0.00 32 1017.0
20260905205203 24 0 0.0 0.0 0.00 0.00 0.00 33 1017.0
20260905203932 24 0 0.0 0.0 0.00 0.00 0.00 35 1017.0
20260905201432 24 0 0.0 0.0 0.00 0.00 0.00 35 1017.0
20260905200203 24 0 0.0 0.0 0.00 0.00 0.00 37 1017.0
20260905194932 23 0 0.0 0.0 0.00 0.00 0.00 40 1017.0
20260905193704 23 0 0.0 0.0 0.00 0.00 0.00 42 1017.0
20260905191203 23 0 0.0 0.0 0.00 0.00 0.00 45 1017.0
20260905185932 23 0 0.0 0.0 0.00 0.00 0.00 45 1017.0
20260905184703 24 0 0.0 0.0 0.00 0.00 0.00 43 1017.0
20260905183432 24 0 0.0 0.0 0.00 0.00 0.00 43 1017.0
20260905182203 24 0 0.0 0.0 0.00 0.00 0.00 42 1016.0
20260905180932 24 0 0.0 0.0 0.00 0.00 0.00 42 1016.0
20260905175703 25 0 0.0 0.0 0.00 0.00 0.00 44 1016.0
20260905174432 25 0 0.0 0.0 0.00 0.00 0.00 41 1016.0
20260905173203 25 0 0.0 0.0 0.00 0.00 0.00 40 1016.0
20260905171932 25 0 0.0 0.0 0.00 0.00 0.00 39 1016.0
20260905170703 26 200 0.0 3.2 0.00 0.00 0.00 39 1016.0
20260905165432 26 177 0.0 3.2 0.00 0.00 0.00 37 1016.0
20260905164203 26 0 0.0 0.0 0.00 0.00 0.00 36 1016.0
20260905162932 26 164 0.0 6.4 0.00 0.00 0.00 36 1016.0
20260905161703 27 171 1.6 6.4 0.00 0.00 0.00 35 1016.0
20260905160432 27 246 3.2 8.0 0.00 0.00 0.00 34 1016.0
20260905153932 27 243 4.8 8.0 0.00 0.00 0.00 33 1016.0
20260905152702 28 238 3.2 6.4 0.00 0.00 0.00 32 1016.0
20260905151432 28 232 3.2 6.4 0.00 0.00 0.00 30 1016.0
20260905150203 28 241 3.2 8.0 0.00 0.00 0.00 30 1016.0
20260905144931 28 255 3.2 8.0 0.00 0.00 0.00 30 1016.0
20260905143702 28 257 6.4 11.3 0.00 0.00 0.00 31 1016.0
20260905142431 28 256 6.4 11.3 0.00 0.00 0.00 30 1016.0
20260905135931 28 257 3.2 8.0 0.00 0.00 0.00 29 1016.0
20260905134702 28 251 3.2 9.7 0.00 0.00 0.00 30 1016.0
20260905134440 28 247 3.2 9.7 0.00 0.00 0.00 29 1016.0
20260905131940 28 255 4.8 11.3 0.00 0.00 0.00 30 1017.0
20260905130710 28 260 4.8 9.7 0.00 0.00 0.00 31 1017.0
20260905125439 28 244 6.4 11.3 0.00 0.00 0.00 31 1017.0
20260905122939 28 245 6.4 11.3 0.00 0.00 0.00 34 1017.0
20260905121711 28 254 8.0 12.9 0.00 0.00 0.00 35 1017.0
20260905120439 28 245 6.4 12.9 0.00 0.00 0.00 38 1017.0
20260905115210 28 246 6.4 12.9 0.00 0.00 0.00 38 1017.0
20260905113939 27 266 4.8 12.9 0.00 0.00 0.00 38 1018.0
20260905111439 27 254 6.4 14.5 0.00 0.00 0.00 39 1018.0
20260905110210 27 262 6.4 12.9 0.00 0.00 0.00 40 1018.0
20260905104939 27 250 6.4 12.9 0.00 0.00 0.00 41 1018.0
20260905103710 27 256 3.2 12.9 0.00 0.00 0.00 41 1018.0
20260905102439 26 264 6.4 12.9 0.00 0.00 0.00 43 1018.0
20260905101210 26 268 4.8 12.9 0.00 0.00 0.00 43 1018.0
20260905095939 26 251 3.2 9.7 0.00 0.00 0.00 46 1018.0
20260905094711 26 261 1.6 8.0 0.00 0.00 0.00 45 1018.0
20260905093439 26 270 3.2 9.7 0.00 0.00 0.00 48 1019.0
20260905092209 26 266 1.6 8.0 0.00 0.00 0.00 48 1019.0
20260905090939 26 255 3.2 11.3 0.00 0.00 0.00 50 1019.0
20260905085709 26 263 3.2 8.0 0.00 0.00 0.00 51 1019.0
20260905084439 26 268 1.6 6.4 0.00 0.00 0.00 51 1019.0
20260905081939 26 276 0.0 4.8 0.00 0.00 0.00 53 1019.0
20260905075438 26 264 1.6 8.0 0.00 0.00 0.00 55 1019.0